Year,Month,Day,Hour,Minute,Value (Times are PST for temperature in C)
2021,04,17,00,00,12.60
2021,04,17,00,01,12.50
2021,04,17,00,02,12.40
2021,04,17,00,03,12.40
2021,04,17,00,04,12.30
2021,04,17,00,05,12.30
2021,04,17,00,06,12.20
2021,04,17,00,07,12.10
2021,04,17,00,08,12.10
2021,04,17,00,09,12.10
2021,04,17,00,10,12.10
2021,04,17,00,11,12.10
2021,04,17,00,12,12.10
2021,04,17,00,13,12.10
2021,04,17,00,14,12.10
2021,04,17,00,15,12.10
2021,04,17,00,16,12.10
2021,04,17,00,17,12.10
2021,04,17,00,18,12.10
2021,04,17,00,19,12.10
2021,04,17,00,20,12.10
2021,04,17,00,21,12.10
2021,04,17,00,22,12.10
2021,04,17,00,23,12.00
2021,04,17,00,24,12.00
2021,04,17,00,25,12.00
2021,04,17,00,26,11.90
2021,04,17,00,27,11.90
2021,04,17,00,28,11.90
2021,04,17,00,29,11.90
2021,04,17,00,30,11.90
2021,04,17,00,31,11.80
2021,04,17,00,32,11.80
2021,04,17,00,33,11.80
2021,04,17,00,34,11.70
2021,04,17,00,35,11.70
2021,04,17,00,36,11.70
2021,04,17,00,37,11.70
2021,04,17,00,38,11.70
2021,04,17,00,39,11.70
2021,04,17,00,40,11.80
2021,04,17,00,41,11.80
2021,04,17,00,42,11.80
2021,04,17,00,43,11.80
2021,04,17,00,44,11.90
2021,04,17,00,45,11.90
2021,04,17,00,46,12.00
2021,04,17,00,47,12.00
2021,04,17,00,48,12.10
2021,04,17,00,49,12.10
2021,04,17,00,50,12.20
2021,04,17,00,51,12.20
2021,04,17,00,52,12.20
2021,04,17,00,53,12.20
2021,04,17,00,54,12.20
2021,04,17,00,55,12.10
2021,04,17,00,56,12.10
2021,04,17,00,57,12.10
2021,04,17,00,58,12.10
2021,04,17,00,59,12.10
2021,04,17,01,00,12.10
2021,04,17,01,01,12.10
2021,04,17,01,02,12.10
2021,04,17,01,03,12.10
2021,04,17,01,04,12.20
2021,04,17,01,05,12.20
2021,04,17,01,06,12.20
2021,04,17,01,07,12.10
2021,04,17,01,08,12.10
2021,04,17,01,09,12.10
2021,04,17,01,10,12.10
2021,04,17,01,11,12.10
2021,04,17,01,12,12.00
2021,04,17,01,13,12.00
2021,04,17,01,14,12.00
2021,04,17,01,15,12.00
2021,04,17,01,16,12.00
2021,04,17,01,17,12.00
2021,04,17,01,18,11.90
2021,04,17,01,19,11.90
2021,04,17,01,20,11.90
2021,04,17,01,21,11.80
2021,04,17,01,22,11.80
2021,04,17,01,23,11.70
2021,04,17,01,24,11.70
2021,04,17,01,25,11.70
2021,04,17,01,26,11.70
2021,04,17,01,27,11.70
2021,04,17,01,28,11.70
2021,04,17,01,29,11.70
2021,04,17,01,30,11.80
2021,04,17,01,31,11.80
2021,04,17,01,32,11.80
2021,04,17,01,33,11.90
2021,04,17,01,34,11.90
2021,04,17,01,35,12.00
2021,04,17,01,36,12.00
2021,04,17,01,37,12.10
2021,04,17,01,38,12.10
2021,04,17,01,39,12.20
2021,04,17,01,40,12.20
2021,04,17,01,41,12.20
2021,04,17,01,42,12.30
2021,04,17,01,43,12.30
2021,04,17,01,44,12.30
2021,04,17,01,45,12.20
2021,04,17,01,46,12.20
2021,04,17,01,47,12.20
2021,04,17,01,48,12.20
2021,04,17,01,49,12.20
2021,04,17,01,50,12.10
2021,04,17,01,51,12.10
2021,04,17,01,52,12.10
2021,04,17,01,53,12.10
2021,04,17,01,54,12.10
2021,04,17,01,55,12.10
2021,04,17,01,56,12.20
2021,04,17,01,57,12.20
2021,04,17,01,58,12.20
2021,04,17,01,59,12.20
2021,04,17,02,00,12.20
2021,04,17,02,01,12.20
2021,04,17,02,02,12.20
2021,04,17,02,03,12.20
2021,04,17,02,04,12.20
2021,04,17,02,05,12.20
2021,04,17,02,06,12.20
2021,04,17,02,07,12.20
2021,04,17,02,08,12.20
2021,04,17,02,09,12.10
2021,04,17,02,10,12.10
2021,04,17,02,11,12.10
2021,04,17,02,12,12.00
2021,04,17,02,13,12.00
2021,04,17,02,14,11.90
2021,04,17,02,15,11.90
2021,04,17,02,16,11.90
2021,04,17,02,17,11.80
2021,04,17,02,18,11.80
2021,04,17,02,19,11.70
2021,04,17,02,20,11.70
2021,04,17,02,21,11.70
2021,04,17,02,22,11.60
2021,04,17,02,23,11.60
2021,04,17,02,24,11.60
2021,04,17,02,25,11.50
2021,04,17,02,26,11.50
2021,04,17,02,27,11.50
2021,04,17,02,28,11.40
2021,04,17,02,29,11.40
2021,04,17,02,30,11.40
2021,04,17,02,31,11.40
2021,04,17,02,32,11.30
2021,04,17,02,33,11.30
2021,04,17,02,34,11.30
2021,04,17,02,35,11.30
2021,04,17,02,36,11.20
2021,04,17,02,37,11.20
2021,04,17,02,38,11.20
2021,04,17,02,39,11.10
2021,04,17,02,40,11.10
2021,04,17,02,41,11.10
2021,04,17,02,42,11.10
2021,04,17,02,43,11.00
2021,04,17,02,44,11.00
2021,04,17,02,45,11.00
2021,04,17,02,46,11.00
2021,04,17,02,47,11.00
2021,04,17,02,48,10.90
2021,04,17,02,49,10.90
2021,04,17,02,50,10.90
2021,04,17,02,51,10.90
2021,04,17,02,52,10.90
2021,04,17,02,53,10.90
2021,04,17,02,54,10.90
2021,04,17,02,55,11.00
2021,04,17,02,56,10.90
2021,04,17,02,57,10.90
2021,04,17,02,58,10.90
2021,04,17,02,59,10.90
2021,04,17,03,00,11.00
2021,04,17,03,01,11.00
2021,04,17,03,02,11.00
2021,04,17,03,03,11.10
2021,04,17,03,06,11.20
2021,04,17,03,07,11.20
2021,04,17,03,08,11.10
2021,04,17,03,09,11.10
2021,04,17,03,10,11.00
2021,04,17,03,11,11.00
2021,04,17,03,12,10.90
2021,04,17,03,13,10.80
2021,04,17,03,14,10.70
2021,04,17,03,15,10.70
2021,04,17,03,16,10.60
2021,04,17,03,17,10.50
2021,04,17,03,18,10.50
2021,04,17,03,19,10.50
2021,04,17,03,20,10.50
2021,04,17,03,21,10.60
2021,04,17,03,22,10.70
2021,04,17,03,23,10.80
2021,04,17,03,24,10.90
2021,04,17,03,25,11.00
2021,04,17,03,26,11.10
2021,04,17,03,27,11.10
2021,04,17,03,28,11.20
2021,04,17,03,29,11.20
2021,04,17,03,30,11.20
2021,04,17,03,31,11.20
2021,04,17,03,32,11.20
2021,04,17,03,33,11.20
2021,04,17,03,34,11.20
2021,04,17,03,35,11.30
2021,04,17,03,36,11.30
2021,04,17,03,37,11.30
2021,04,17,03,38,11.30
2021,04,17,03,39,11.30
2021,04,17,03,40,11.30
2021,04,17,03,41,11.30
2021,04,17,03,42,11.30
2021,04,17,03,43,11.30
2021,04,17,03,44,11.30
2021,04,17,03,45,11.20
2021,04,17,03,46,11.20
2021,04,17,03,47,11.20
2021,04,17,03,48,11.20
2021,04,17,03,49,11.10
2021,04,17,03,50,11.10
2021,04,17,03,51,11.00
2021,04,17,03,52,11.00
2021,04,17,03,53,10.90
2021,04,17,03,54,10.90
2021,04,17,03,55,10.80
2021,04,17,03,56,10.80
2021,04,17,03,57,10.80
2021,04,17,03,58,10.80
2021,04,17,03,59,10.70
2021,04,17,04,00,10.70
2021,04,17,04,01,10.70
2021,04,17,04,02,10.70
2021,04,17,04,03,10.70
2021,04,17,04,04,10.60
2021,04,17,04,05,10.60
2021,04,17,04,06,10.60
2021,04,17,04,07,10.50
2021,04,17,04,08,10.50
2021,04,17,04,09,10.50
2021,04,17,04,10,10.40
2021,04,17,04,11,10.40
2021,04,17,04,12,10.40
2021,04,17,04,13,10.30
2021,04,17,04,14,10.30
2021,04,17,04,15,10.30
2021,04,17,04,16,10.20
2021,04,17,04,17,10.20
2021,04,17,04,18,10.20
2021,04,17,04,19,10.20
2021,04,17,04,20,10.20
2021,04,17,04,21,10.20
2021,04,17,04,22,10.30
2021,04,17,04,23,10.30
2021,04,17,04,24,10.30
2021,04,17,04,25,10.30
2021,04,17,04,26,10.30
2021,04,17,04,27,10.30
2021,04,17,04,28,10.30
2021,04,17,04,29,10.30
2021,04,17,04,30,10.20
2021,04,17,04,31,10.20
2021,04,17,04,32,10.20
2021,04,17,04,33,10.10
2021,04,17,04,34,10.10
2021,04,17,04,35,10.10
2021,04,17,04,36,10.10
2021,04,17,04,37,10.10
2021,04,17,04,38,10.00
2021,04,17,04,39,10.00
2021,04,17,04,40,10.00
2021,04,17,04,41,9.90
2021,04,17,04,42,9.90
2021,04,17,04,43,9.80
2021,04,17,04,44,9.80
2021,04,17,04,45,9.70
2021,04,17,04,46,9.70
2021,04,17,04,47,9.70
2021,04,17,04,48,9.80
2021,04,17,04,49,9.80
2021,04,17,04,50,9.80
2021,04,17,04,51,9.80
2021,04,17,04,52,9.80
2021,04,17,04,53,9.70
2021,04,17,04,54,9.70
2021,04,17,04,55,9.70
2021,04,17,04,56,9.60
2021,04,17,04,57,9.60
2021,04,17,04,58,9.50
2021,04,17,04,59,9.50
2021,04,17,05,00,9.50
2021,04,17,05,01,9.40
2021,04,17,05,02,9.40
2021,04,17,05,03,9.40
2021,04,17,05,04,9.40
2021,04,17,05,05,9.30
2021,04,17,05,06,9.30
2021,04,17,05,07,9.30
2021,04,17,05,08,9.30
2021,04,17,05,09,9.20
2021,04,17,05,10,9.20
2021,04,17,05,11,9.20
2021,04,17,05,12,9.10
2021,04,17,05,13,9.10
2021,04,17,05,14,9.10
2021,04,17,05,15,9.00
2021,04,17,05,16,9.00
2021,04,17,05,17,9.00
2021,04,17,05,18,8.90
2021,04,17,05,19,8.90
2021,04,17,05,20,8.80
2021,04,17,05,21,8.80
2021,04,17,05,22,8.80
2021,04,17,05,23,8.80
2021,04,17,05,24,8.80
2021,04,17,05,25,8.80
2021,04,17,05,26,8.80
2021,04,17,05,27,8.80
2021,04,17,05,28,8.80
2021,04,17,05,29,8.80
2021,04,17,05,30,8.90
2021,04,17,05,31,8.90
2021,04,17,05,32,8.90
2021,04,17,05,33,8.90
2021,04,17,05,34,8.90
2021,04,17,05,35,8.80
2021,04,17,05,36,8.80
2021,04,17,05,37,8.80
2021,04,17,05,38,8.80
2021,04,17,05,39,8.80
2021,04,17,05,40,8.80
2021,04,17,05,41,8.80
2021,04,17,05,42,8.80
2021,04,17,05,43,8.80
2021,04,17,05,44,8.80
2021,04,17,05,45,8.90
2021,04,17,05,46,9.00
2021,04,17,05,47,9.10
2021,04,17,05,48,9.20
2021,04,17,05,49,9.40
2021,04,17,05,50,9.50
2021,04,17,05,51,9.70
2021,04,17,05,52,9.80
2021,04,17,05,53,10.00
2021,04,17,05,54,10.20
2021,04,17,05,55,10.30
2021,04,17,05,56,10.40
2021,04,17,05,57,10.60
2021,04,17,05,58,10.70
2021,04,17,05,59,10.80
2021,04,17,06,00,10.90
2021,04,17,06,01,10.90
2021,04,17,06,02,10.90
2021,04,17,06,03,11.00
2021,04,17,06,04,11.10
2021,04,17,06,05,11.10
2021,04,17,06,06,11.20
2021,04,17,06,07,11.20
2021,04,17,06,08,11.20
2021,04,17,06,09,11.20
2021,04,17,06,10,11.20
2021,04,17,06,11,11.20
2021,04,17,06,12,11.20
2021,04,17,06,13,11.20
2021,04,17,06,14,11.20
2021,04,17,06,15,11.20
2021,04,17,06,16,11.20
2021,04,17,06,17,11.20
2021,04,17,06,18,11.10
2021,04,17,06,19,11.10
2021,04,17,06,20,11.00
2021,04,17,06,21,11.00
2021,04,17,06,22,10.90
2021,04,17,06,23,10.90
2021,04,17,06,24,10.80
2021,04,17,06,25,10.80
2021,04,17,06,26,10.70
2021,04,17,06,27,10.70
2021,04,17,06,28,10.60
2021,04,17,06,29,10.60
2021,04,17,06,30,10.60
2021,04,17,06,31,10.60
2021,04,17,06,32,10.50
2021,04,17,06,33,10.50
2021,04,17,06,34,10.50
2021,04,17,06,35,10.50
2021,04,17,06,36,10.50
2021,04,17,06,37,10.50
2021,04,17,06,38,10.50
2021,04,17,06,39,10.50
2021,04,17,06,40,10.50
2021,04,17,06,41,10.50
2021,04,17,06,42,10.60
2021,04,17,06,43,10.60
2021,04,17,06,44,10.60
2021,04,17,06,45,10.70
2021,04,17,06,46,10.70
2021,04,17,06,47,10.70
2021,04,17,06,48,10.80
2021,04,17,06,49,10.80
2021,04,17,06,50,10.90
2021,04,17,06,51,11.00
2021,04,17,06,52,11.00
2021,04,17,06,53,11.10
2021,04,17,06,54,11.20
2021,04,17,06,55,11.40
2021,04,17,06,56,11.50
2021,04,17,06,57,11.60
2021,04,17,06,58,11.70
2021,04,17,06,59,11.80
2021,04,17,07,00,11.90
2021,04,17,07,01,11.90
2021,04,17,07,02,12.00
2021,04,17,07,03,12.00
2021,04,17,07,04,12.10
2021,04,17,07,05,12.10
2021,04,17,07,06,12.20
2021,04,17,07,07,12.20
2021,04,17,07,08,12.30
2021,04,17,07,09,12.30
2021,04,17,07,10,12.30
2021,04,17,07,11,12.40
2021,04,17,07,12,12.40
2021,04,17,07,13,12.40
2021,04,17,07,14,12.40
2021,04,17,07,15,12.40
2021,04,17,07,16,12.40
2021,04,17,07,17,12.50
2021,04,17,07,18,12.50
2021,04,17,07,19,12.60
2021,04,17,07,20,12.60
2021,04,17,07,21,12.60
2021,04,17,07,22,12.70
2021,04,17,07,23,12.70
2021,04,17,07,24,12.70
2021,04,17,07,25,12.70
2021,04,17,07,26,12.80
2021,04,17,07,27,12.80
2021,04,17,07,28,12.80
2021,04,17,07,29,12.90
2021,04,17,07,30,12.90
2021,04,17,07,31,12.90
2021,04,17,07,32,13.00
2021,04,17,07,33,13.00
2021,04,17,07,34,13.10
2021,04,17,07,35,13.10
2021,04,17,07,36,13.10
2021,04,17,07,37,13.20
2021,04,17,07,38,13.20
2021,04,17,07,39,13.20
2021,04,17,07,40,13.30
2021,04,17,07,41,13.30
2021,04,17,07,42,13.30
2021,04,17,07,43,13.40
2021,04,17,07,44,13.40
2021,04,17,07,45,13.50
2021,04,17,07,46,13.60
2021,04,17,07,47,13.60
2021,04,17,07,48,13.70
2021,04,17,07,49,13.80
2021,04,17,07,50,13.80
2021,04,17,07,51,13.90
2021,04,17,07,52,13.90
2021,04,17,07,53,14.00
2021,04,17,07,54,14.10
2021,04,17,07,55,14.20
2021,04,17,07,56,14.30
2021,04,17,07,57,14.40
2021,04,17,07,58,14.40
2021,04,17,07,59,14.50
2021,04,17,08,00,14.60
2021,04,17,08,01,14.60
2021,04,17,08,02,14.70
2021,04,17,08,03,14.70
2021,04,17,08,04,14.70
2021,04,17,08,05,14.80
2021,04,17,08,06,14.80
2021,04,17,08,07,14.90
2021,04,17,08,08,14.90
2021,04,17,08,09,14.90
2021,04,17,08,10,15.00
2021,04,17,08,11,15.00
2021,04,17,08,12,15.00
2021,04,17,08,13,15.10
2021,04,17,08,14,15.10
2021,04,17,08,15,15.10
2021,04,17,08,16,15.10
2021,04,17,08,17,15.10
2021,04,17,08,18,15.10
2021,04,17,08,19,15.10
2021,04,17,08,20,15.10
2021,04,17,08,21,15.10
2021,04,17,08,22,15.20
2021,04,17,08,23,15.20
2021,04,17,08,24,15.20
2021,04,17,08,25,15.20
2021,04,17,08,26,15.10
2021,04,17,08,27,15.10
2021,04,17,08,28,15.10
2021,04,17,08,29,15.10
2021,04,17,08,30,15.00
2021,04,17,08,31,15.00
2021,04,17,08,32,15.00
2021,04,17,08,33,15.10
2021,04,17,08,34,15.10
2021,04,17,08,35,15.00
2021,04,17,08,36,15.00
2021,04,17,08,37,15.00
2021,04,17,08,38,15.00
2021,04,17,08,39,15.00
2021,04,17,08,40,14.90
2021,04,17,08,41,14.90
2021,04,17,08,42,14.90
2021,04,17,08,43,14.90
2021,04,17,08,44,14.90
2021,04,17,08,45,14.90
2021,04,17,08,46,14.90
2021,04,17,08,47,14.90
2021,04,17,08,48,14.90
2021,04,17,08,49,14.90
2021,04,17,08,50,14.90
2021,04,17,08,51,15.00
2021,04,17,08,52,15.00
2021,04,17,08,53,15.10
2021,04,17,08,54,15.10
2021,04,17,08,55,15.10
2021,04,17,08,56,15.20
2021,04,17,08,57,15.20
2021,04,17,08,58,15.30
2021,04,17,08,59,15.30
2021,04,17,09,00,15.40
2021,04,17,09,01,15.40
2021,04,17,09,02,15.40
2021,04,17,09,03,15.40
2021,04,17,09,04,15.40
2021,04,17,09,05,15.40
2021,04,17,09,06,15.40
2021,04,17,09,07,15.50
2021,04,17,09,08,15.50
2021,04,17,09,09,15.60
2021,04,17,09,10,15.60
2021,04,17,09,11,15.70
2021,04,17,09,12,15.80
2021,04,17,09,13,15.80
2021,04,17,09,14,15.90
2021,04,17,09,15,16.00
2021,04,17,09,16,16.10
2021,04,17,09,17,16.10
2021,04,17,09,18,16.10
2021,04,17,09,19,16.10
2021,04,17,09,20,16.10
2021,04,17,09,21,16.20
2021,04,17,09,22,16.20
2021,04,17,09,23,16.20
2021,04,17,09,24,16.30
2021,04,17,09,25,16.30
2021,04,17,09,26,16.40
2021,04,17,09,27,16.40
2021,04,17,09,28,16.50
2021,04,17,09,29,16.50
2021,04,17,09,30,16.60
2021,04,17,09,31,16.60
2021,04,17,09,32,16.70
2021,04,17,09,33,16.70
2021,04,17,09,34,16.70
2021,04,17,09,35,16.70
2021,04,17,09,36,16.70
2021,04,17,09,37,16.60
2021,04,17,09,38,16.60
2021,04,17,09,39,16.60
2021,04,17,09,40,16.60
2021,04,17,09,41,16.60
2021,04,17,09,42,16.60
2021,04,17,09,43,16.70
2021,04,17,09,44,16.80
2021,04,17,09,45,16.80
2021,04,17,09,46,16.90
2021,04,17,09,47,16.90
2021,04,17,09,48,17.00
2021,04,17,09,49,17.10
2021,04,17,09,50,17.20
2021,04,17,09,51,17.30
2021,04,17,09,52,17.30
2021,04,17,09,53,17.40
2021,04,17,09,54,17.40
2021,04,17,09,55,17.50
2021,04,17,09,56,17.50
2021,04,17,09,57,17.60
2021,04,17,09,58,17.60
2021,04,17,09,59,17.70
2021,04,17,10,00,17.70
2021,04,17,10,01,17.70
2021,04,17,10,02,17.70
2021,04,17,10,03,17.70
2021,04,17,10,04,17.80
2021,04,17,10,05,17.80
2021,04,17,10,06,17.90
2021,04,17,10,07,17.90
2021,04,17,10,08,18.00
2021,04,17,10,09,18.00
2021,04,17,10,10,18.00
2021,04,17,10,11,18.00
2021,04,17,10,12,18.00
2021,04,17,10,13,18.10
2021,04,17,10,14,18.10
2021,04,17,10,15,18.10
2021,04,17,10,16,18.10
2021,04,17,10,17,18.20
2021,04,17,10,18,18.20
2021,04,17,10,19,18.20
2021,04,17,10,20,18.30
2021,04,17,10,21,18.30
2021,04,17,10,22,18.20
2021,04,17,10,23,18.20
2021,04,17,10,24,18.20
2021,04,17,10,25,18.20
2021,04,17,10,26,18.20
2021,04,17,10,27,18.30
2021,04,17,10,28,18.30
2021,04,17,10,29,18.30
2021,04,17,10,30,18.30
2021,04,17,10,31,18.40
2021,04,17,10,32,18.40
2021,04,17,10,33,18.50
2021,04,17,10,34,18.50
2021,04,17,10,35,18.60
2021,04,17,10,36,18.70
2021,04,17,10,37,18.70
2021,04,17,10,38,18.70
2021,04,17,10,39,18.70
2021,04,17,10,40,18.70
2021,04,17,10,41,18.70
2021,04,17,10,42,18.70
2021,04,17,10,43,18.70
2021,04,17,10,44,18.70
2021,04,17,10,45,18.70
2021,04,17,10,46,18.70
2021,04,17,10,47,18.70
2021,04,17,10,48,18.70
2021,04,17,10,49,18.70
2021,04,17,10,50,18.70
2021,04,17,10,51,18.70
2021,04,17,10,52,18.70
2021,04,17,10,53,18.70
2021,04,17,10,54,18.80
2021,04,17,10,55,18.80
2021,04,17,10,56,18.90
2021,04,17,10,57,19.00
2021,04,17,10,58,19.00
2021,04,17,10,59,19.10
2021,04,17,11,00,19.10
2021,04,17,11,01,19.10
2021,04,17,11,02,19.10
2021,04,17,11,03,19.10
2021,04,17,11,04,19.10
2021,04,17,11,05,19.20
2021,04,17,11,06,19.20
2021,04,17,11,07,19.20
2021,04,17,11,08,19.20
2021,04,17,11,09,19.20
2021,04,17,11,10,19.20
2021,04,17,11,11,19.20
2021,04,17,11,12,19.20
2021,04,17,11,13,19.20
2021,04,17,11,14,19.20
2021,04,17,11,15,19.20
2021,04,17,11,16,19.20
2021,04,17,11,17,19.30
2021,04,17,11,18,19.30
2021,04,17,11,19,19.30
2021,04,17,11,20,19.30
2021,04,17,11,21,19.40
2021,04,17,11,22,19.40
2021,04,17,11,23,19.40
2021,04,17,11,24,19.40
2021,04,17,11,25,19.40
2021,04,17,11,26,19.50
2021,04,17,11,27,19.50
2021,04,17,11,28,19.40
2021,04,17,11,29,19.40
2021,04,17,11,30,19.40
2021,04,17,11,31,19.40
2021,04,17,11,32,19.40
2021,04,17,11,33,19.30
2021,04,17,11,34,19.30
2021,04,17,11,35,19.40
2021,04,17,11,36,19.40
2021,04,17,11,37,19.40
2021,04,17,11,38,19.40
2021,04,17,11,39,19.30
2021,04,17,11,40,19.20
2021,04,17,11,41,19.20
2021,04,17,11,42,19.20
2021,04,17,11,43,19.20
2021,04,17,11,44,19.30
2021,04,17,11,45,19.30
2021,04,17,11,46,19.30
2021,04,17,11,47,19.30
2021,04,17,11,48,19.40
2021,04,17,11,49,19.40
2021,04,17,11,50,19.40
2021,04,17,11,51,19.50
2021,04,17,11,52,19.60
2021,04,17,11,53,19.60
2021,04,17,11,54,19.60
2021,04,17,11,55,19.60
2021,04,17,11,56,19.70
2021,04,17,11,57,19.60
2021,04,17,11,58,19.50
2021,04,17,11,59,19.30
2021,04,17,12,00,19.10
2021,04,17,12,01,19.00
2021,04,17,12,02,18.80
2021,04,17,12,03,18.70
2021,04,17,12,04,18.60
2021,04,17,12,05,18.60
2021,04,17,12,06,18.50
2021,04,17,12,07,18.40
2021,04,17,12,08,18.20
2021,04,17,12,09,18.20
2021,04,17,12,10,18.00
2021,04,17,12,11,17.80
2021,04,17,12,12,17.70
2021,04,17,12,13,17.70
2021,04,17,12,14,17.70
2021,04,17,12,15,17.80
2021,04,17,12,16,17.90
2021,04,17,12,17,18.00
2021,04,17,12,18,18.00
2021,04,17,12,19,18.00
2021,04,17,12,20,18.00
2021,04,17,12,21,17.90
2021,04,17,12,22,17.80
2021,04,17,12,23,17.60
2021,04,17,12,24,17.50
2021,04,17,12,25,17.50
2021,04,17,12,26,17.60
2021,04,17,12,27,17.70
2021,04,17,12,28,17.80
2021,04,17,12,29,17.90
2021,04,17,12,30,18.10
2021,04,17,12,31,18.10
2021,04,17,12,32,18.10
2021,04,17,12,33,18.10
2021,04,17,12,34,18.20
2021,04,17,12,35,18.30
2021,04,17,12,36,18.40
2021,04,17,12,37,18.50
2021,04,17,12,38,18.60
2021,04,17,12,39,18.60
2021,04,17,12,40,18.70
2021,04,17,12,41,18.70
2021,04,17,12,42,18.80
2021,04,17,12,43,18.90
2021,04,17,12,44,19.00
2021,04,17,12,45,19.10
2021,04,17,12,46,19.10
2021,04,17,12,47,19.10
2021,04,17,12,48,19.20
2021,04,17,12,49,19.20
2021,04,17,12,50,19.30
2021,04,17,12,51,19.40
2021,04,17,12,52,19.50
2021,04,17,12,53,19.60
2021,04,17,12,54,19.70
2021,04,17,12,55,19.80
2021,04,17,12,56,19.90
2021,04,17,12,57,20.00
2021,04,17,12,58,20.10
2021,04,17,12,59,20.10
2021,04,17,13,00,20.20
2021,04,17,13,01,20.30
2021,04,17,13,02,20.30
2021,04,17,13,03,20.40
2021,04,17,13,04,20.40
2021,04,17,13,05,20.40
2021,04,17,13,06,20.40
2021,04,17,13,07,20.40
2021,04,17,13,08,20.50
2021,04,17,13,09,20.50
2021,04,17,13,10,20.60
2021,04,17,13,11,20.60
2021,04,17,13,12,20.60
2021,04,17,13,13,20.60
2021,04,17,13,14,20.60
2021,04,17,13,15,20.70
2021,04,17,13,16,20.70
2021,04,17,13,17,20.70
2021,04,17,13,18,20.80
2021,04,17,13,19,20.90
2021,04,17,13,20,20.90
2021,04,17,13,21,21.00
2021,04,17,13,22,21.00
2021,04,17,13,23,21.10
2021,04,17,13,24,21.20
2021,04,17,13,25,21.30
2021,04,17,13,26,21.40
2021,04,17,13,27,21.50
2021,04,17,13,28,21.60
2021,04,17,13,29,21.60
2021,04,17,13,30,21.60
2021,04,17,13,31,21.60
2021,04,17,13,32,21.60
2021,04,17,13,33,21.60
2021,04,17,13,34,21.60
2021,04,17,13,35,21.60
2021,04,17,13,36,21.60
2021,04,17,13,37,21.60
2021,04,17,13,38,21.50
2021,04,17,13,39,21.50
2021,04,17,13,40,21.50
2021,04,17,13,41,21.50
2021,04,17,13,42,21.50
2021,04,17,13,43,21.60
2021,04,17,13,44,21.60
2021,04,17,13,45,21.70
2021,04,17,13,46,21.70
2021,04,17,13,47,21.70
2021,04,17,13,48,21.80
2021,04,17,13,49,21.90
2021,04,17,13,50,22.00
2021,04,17,13,51,22.00
2021,04,17,13,52,22.10
2021,04,17,13,53,22.10
2021,04,17,13,54,22.10
2021,04,17,13,55,22.00
2021,04,17,13,56,21.90
2021,04,17,13,57,21.90
2021,04,17,13,58,21.80
2021,04,17,13,59,21.90
2021,04,17,14,00,21.90
2021,04,17,14,01,22.00
2021,04,17,14,02,22.00
2021,04,17,14,03,22.00
2021,04,17,14,04,22.10
2021,04,17,14,05,22.10
2021,04,17,14,06,22.10
2021,04,17,14,07,22.00
2021,04,17,14,08,22.00
2021,04,17,14,09,22.00
2021,04,17,14,10,22.00
2021,04,17,14,11,22.10
2021,04,17,14,12,22.10
2021,04,17,14,13,22.20
2021,04,17,14,14,22.20
2021,04,17,14,15,22.30
2021,04,17,14,16,22.40
2021,04,17,14,17,22.40
2021,04,17,14,18,22.50
2021,04,17,14,19,22.60
2021,04,17,14,20,22.60
2021,04,17,14,21,22.70
2021,04,17,14,22,22.70
2021,04,17,14,23,22.80
2021,04,17,14,24,22.80
2021,04,17,14,25,22.90
2021,04,17,14,26,22.90
2021,04,17,14,27,23.00
2021,04,17,14,28,23.10
2021,04,17,14,29,23.10
2021,04,17,14,30,23.20
2021,04,17,14,31,23.30
2021,04,17,14,32,23.40
2021,04,17,14,33,23.40
2021,04,17,14,34,23.50
2021,04,17,14,35,23.50
2021,04,17,14,36,23.60
2021,04,17,14,37,23.60
2021,04,17,14,38,23.60
2021,04,17,14,39,23.70
2021,04,17,14,40,23.70
2021,04,17,14,41,23.70
2021,04,17,14,42,23.70
2021,04,17,14,43,23.70
2021,04,17,14,44,23.70
2021,04,17,14,45,23.80
2021,04,17,14,46,23.80
2021,04,17,14,47,23.80
2021,04,17,14,48,23.80
2021,04,17,14,49,23.80
2021,04,17,14,50,23.80
2021,04,17,14,51,23.80
2021,04,17,14,52,23.80
2021,04,17,14,53,23.80
2021,04,17,14,54,23.90
2021,04,17,14,55,23.90
2021,04,17,14,56,23.90
2021,04,17,14,57,23.90
2021,04,17,14,58,24.00
2021,04,17,14,59,24.00
2021,04,17,15,00,24.10
2021,04,17,15,01,24.10
2021,04,17,15,02,24.10
2021,04,17,15,03,24.10
2021,04,17,15,04,24.10
2021,04,17,15,05,24.10
2021,04,17,15,06,24.10
2021,04,17,15,07,24.20
2021,04,17,15,08,24.20
2021,04,17,15,09,24.20
2021,04,17,15,10,24.20
2021,04,17,15,11,24.30
2021,04,17,15,12,24.30
2021,04,17,15,13,24.30
2021,04,17,15,14,24.30
2021,04,17,15,15,24.30
2021,04,17,15,16,24.30
2021,04,17,15,17,24.40
2021,04,17,15,18,24.40
2021,04,17,15,19,24.50
2021,04,17,15,20,24.50
2021,04,17,15,21,24.50
2021,04,17,15,22,24.60
2021,04,17,15,23,24.60
2021,04,17,15,24,24.60
2021,04,17,15,25,24.60
2021,04,17,15,26,24.60
2021,04,17,15,27,24.70
2021,04,17,15,28,24.70
2021,04,17,15,29,24.70
2021,04,17,15,30,24.80
2021,04,17,15,31,24.80
2021,04,17,15,32,24.80
2021,04,17,15,33,24.80
2021,04,17,15,34,24.90
2021,04,17,15,35,24.90
2021,04,17,15,36,24.90
2021,04,17,15,37,24.90
2021,04,17,15,38,24.90
2021,04,17,15,39,24.90
2021,04,17,15,40,24.90
2021,04,17,15,41,24.80
2021,04,17,15,42,24.80
2021,04,17,15,43,24.70
2021,04,17,15,44,24.60
2021,04,17,15,45,24.60
2021,04,17,15,46,24.50
2021,04,17,15,47,24.50
2021,04,17,15,48,24.50
2021,04,17,15,49,24.50
2021,04,17,15,50,24.50
2021,04,17,15,51,24.50
2021,04,17,15,52,24.40
2021,04,17,15,53,24.40
2021,04,17,15,54,24.40
2021,04,17,15,55,24.40
2021,04,17,15,56,24.40
2021,04,17,15,57,24.40
2021,04,17,15,58,24.50
2021,04,17,15,59,24.50
2021,04,17,16,00,24.50
2021,04,17,16,01,24.50
2021,04,17,16,02,24.40
2021,04,17,16,03,24.40
2021,04,17,16,04,24.40
2021,04,17,16,05,24.40
2021,04,17,16,06,24.50
2021,04,17,16,07,24.50
2021,04,17,16,08,24.60
2021,04,17,16,09,24.60
2021,04,17,16,10,24.70
2021,04,17,16,11,24.70
2021,04,17,16,12,24.70
2021,04,17,16,13,24.80
2021,04,17,16,14,24.70
2021,04,17,16,15,24.70
2021,04,17,16,16,24.70
2021,04,17,16,17,24.80
2021,04,17,16,18,24.80
2021,04,17,16,19,24.70
2021,04,17,16,20,24.50
2021,04,17,16,21,24.40
2021,04,17,16,22,24.30
2021,04,17,16,23,24.20
2021,04,17,16,24,24.20
2021,04,17,16,25,24.20
2021,04,17,16,26,24.30
2021,04,17,16,27,24.30
2021,04,17,16,28,24.30
2021,04,17,16,29,24.40
2021,04,17,16,30,24.40
2021,04,17,16,31,24.40
2021,04,17,16,32,24.50
2021,04,17,16,33,24.50
2021,04,17,16,34,24.50
2021,04,17,16,35,24.60
2021,04,17,16,36,24.60
2021,04,17,16,37,24.70
2021,04,17,16,38,24.70
2021,04,17,16,39,24.60
2021,04,17,16,40,24.60
2021,04,17,16,41,24.70
2021,04,17,16,42,24.70
2021,04,17,16,43,24.70
2021,04,17,16,44,24.80
2021,04,17,16,45,24.90
2021,04,17,16,46,24.90
2021,04,17,16,47,24.90
2021,04,17,16,48,25.00
2021,04,17,16,49,25.10
2021,04,17,16,50,25.10
2021,04,17,16,51,25.20
2021,04,17,16,52,25.20
2021,04,17,16,53,25.20
2021,04,17,16,54,25.20
2021,04,17,16,55,25.30
2021,04,17,16,56,25.30
2021,04,17,16,57,25.30
2021,04,17,16,58,25.20
2021,04,17,16,59,25.00
2021,04,17,17,00,24.90
2021,04,17,17,01,24.90
2021,04,17,17,02,24.80
2021,04,17,17,03,24.80
2021,04,17,17,04,24.90
2021,04,17,17,05,24.90
2021,04,17,17,06,24.90
2021,04,17,17,07,24.90
2021,04,17,17,08,24.90
2021,04,17,17,09,24.90
2021,04,17,17,10,25.00
2021,04,17,17,11,25.00
2021,04,17,17,12,25.10
2021,04,17,17,13,25.10
2021,04,17,17,14,25.10
2021,04,17,17,15,25.10
2021,04,17,17,16,25.10
2021,04,17,17,17,25.10
2021,04,17,17,18,25.10
2021,04,17,17,19,25.10
2021,04,17,17,20,25.00
2021,04,17,17,21,25.00
2021,04,17,17,22,24.90
2021,04,17,17,23,24.90
2021,04,17,17,24,24.90